| time (UTC) | temp F | wind direction | speed knots | gust knots | rain 1hr in | rain 24hr in | rain mn in | humidity % | barometer mb |
| 20260505124532 | 57 | 0 | 0.9 | 8.7 | 0.00 | 0.10 | 0.10 | 93 | 1008.5 |
| 20260505123045 | 57 | 0 | 0.9 | 4.3 | 0.00 | 0.10 | 0.10 | 94 | 1008.6 |
| 20260505121529 | 57 | 205 | 0.9 | 2.6 | 0.00 | 0.10 | 0.10 | 94 | 1009.3 |
| 20260505120037 | 56 | 0 | 0.9 | 2.6 | 0.00 | 0.10 | 0.10 | 94 | 1009.5 |
| 20260505114531 | 56 | 205 | 1.7 | 5.2 | 0.00 | 0.10 | 0.10 | 94 | 1009.5 |
| 20260505113030 | 56 | 215 | 0.9 | 4.3 | 0.00 | 0.10 | 0.10 | 93 | 1009.1 |
| 20260505111535 | 56 | 196 | 1.7 | 7.8 | 0.01 | 0.10 | 0.10 | 93 | 1008.8 |
| 20260505101531 | 57 | 0 | 0.0 | 1.7 | 0.07 | 0.09 | 0.09 | 91 | 1009.2 |
| 20260505100034 | 57 | 0 | 0.0 | 3.5 | 0.09 | 0.09 | 0.09 | 90 | 1009.7 |
| 20260505094532 | 58 | 351 | 0.0 | 5.2 | 0.05 | 0.05 | 0.05 | 88 | 1010.0 |
| 20260505093031 | 59 | 0 | 0.0 | 6.1 | 0.02 | 0.02 | 0.02 | 84 | 1010.0 |
| 20260505091533 | 61 | 326 | 1.7 | 7.8 | 0.02 | 0.02 | 0.02 | 77 | 1009.6 |
| 20260505090036 | 65 | 263 | 1.7 | 9.6 | 0.00 | 0.00 | 0.00 | 63 | 1008.6 |
| 20260505084536 | 65 | 225 | 2.6 | 13.0 | 0.00 | 0.00 | 0.00 | 64 | 1008.0 |
| 20260505083032 | 64 | 211 | 2.6 | 7.0 | 0.00 | 0.00 | 0.00 | 67 | 1007.7 |
| 20260505081532 | 63 | 219 | 1.7 | 4.3 | 0.00 | 0.00 | 0.00 | 68 | 1007.5 |
| 20260505080029 | 62 | 225 | 0.9 | 4.3 | 0.00 | 0.00 | 0.00 | 69 | 1007.0 |
| 20260505074534 | 62 | 226 | 1.7 | 7.0 | 0.00 | 0.00 | 0.00 | 68 | 1007.2 |
| 20260505073030 | 63 | 248 | 2.6 | 7.8 | 0.00 | 0.00 | 0.00 | 67 | 1007.2 |
| 20260505071532 | 63 | 225 | 3.5 | 7.8 | 0.00 | 0.00 | 0.00 | 68 | 1006.9 |
| 20260505070030 | 63 | 203 | 3.5 | 8.7 | 0.00 | 0.00 | 0.00 | 67 | 1006.8 |
| 20260505064534 | 63 | 219 | 3.5 | 7.8 | 0.00 | 0.00 | 0.00 | 67 | 1006.9 |
| 20260505063029 | 62 | 209 | 3.5 | 7.0 | 0.00 | 0.00 | 0.00 | 67 | 1006.9 |
| 20260505061528 | 63 | 233 | 4.3 | 9.6 | 0.00 | 0.00 | 0.00 | 66 | 1006.9 |
| 20260505060030 | 63 | 248 | 5.2 | 11.3 | 0.00 | 0.00 | 0.00 | 66 | 1006.9 |
| 20260505054544 | 63 | 210 | 4.3 | 12.2 | 0.00 | 0.00 | 0.00 | 67 | 1006.6 |
| 20260505053029 | 63 | 178 | 4.3 | 8.7 | 0.00 | 0.00 | 0.00 | 66 | 1006.1 |
| 20260505051532 | 64 | 235 | 4.3 | 9.6 | 0.00 | 0.00 | 0.00 | 66 | 1006.2 |
| 20260505041532 | 64 | 211 | 2.6 | 7.0 | 0.00 | 0.00 | 0.00 | 67 | 1006.9 |
| 20260505040034 | 64 | 210 | 2.6 | 8.7 | 0.00 | 0.00 | 0.00 | 66 | 1007.1 |
| 20260505034538 | 65 | 213 | 3.5 | 8.7 | 0.00 | 0.00 | 0.00 | 66 | 1007.1 |
| 20260505033032 | 65 | 222 | 2.6 | 8.7 | 0.00 | 0.00 | 0.00 | 65 | 1007.1 |
| 20260505031530 | 65 | 208 | 3.5 | 7.8 | 0.00 | 0.00 | 0.00 | 66 | 1007.0 |
| 20260505030044 | 65 | 204 | 3.5 | 7.8 | 0.00 | 0.00 | 0.00 | 65 | 1006.9 |
| 20260505024531 | 66 | 206 | 3.5 | 7.8 | 0.00 | 0.00 | 0.00 | 64 | 1006.8 |
| 20260505023039 | 66 | 210 | 3.5 | 7.0 | 0.00 | 0.00 | 0.00 | 64 | 1006.5 |
| 20260505021533 | 66 | 209 | 2.6 | 6.1 | 0.00 | 0.00 | 0.00 | 63 | 1006.4 |
| 20260505020030 | 66 | 216 | 2.6 | 7.0 | 0.00 | 0.00 | 0.00 | 63 | 1006.0 |
| 20260505014536 | 67 | 226 | 2.6 | 6.1 | 0.00 | 0.00 | 0.00 | 62 | 1005.8 |
| 20260505013038 | 68 | 213 | 3.5 | 8.7 | 0.00 | 0.00 | 0.00 | 60 | 1005.5 |
| 20260505011532 | 68 | 213 | 3.5 | 7.8 | 0.00 | 0.00 | 0.00 | 59 | 1005.3 |
| 20260505010034 | 69 | 223 | 3.5 | 9.6 | 0.00 | 0.00 | 0.00 | 58 | 1005.3 |
| 20260505004553 | 70 | 212 | 3.5 | 9.6 | 0.00 | 0.00 | 0.00 | 57 | 1005.3 |
| 20260505003032 | 71 | 218 | 5.2 | 11.3 | 0.00 | 0.00 | 0.00 | 55 | 1005.5 |
| 20260505001535 | 71 | 215 | 5.2 | 13.0 | 0.00 | 0.00 | 0.00 | 57 | 1005.4 |
| 20260505000036 | 72 | 227 | 5.2 | 11.3 | 0.00 | 0.00 | 0.00 | 56 | 1005.7 |
| 20260504234531 | 72 | 221 | 7.0 | 13.0 | 0.00 | 0.00 | 0.00 | 56 | 1005.9 |
| 20260504233032 | 73 | 207 | 5.2 | 13.0 | 0.00 | 0.00 | 0.00 | 55 | 1006.0 |
| 20260504231530 | 73 | 232 | 3.5 | 12.2 | 0.00 | 0.00 | 0.00 | 53 | 1006.1 |
| 20260504230030 | 74 | 195 | 5.2 | 17.4 | 0.00 | 0.00 | 0.00 | 52 | 1006.4 |
| 20260504224534 | 74 | 232 | 7.0 | 20.0 | 0.00 | 0.00 | 0.00 | 50 | 1006.5 |
| 20260504223030 | 75 | 232 | 7.8 | 17.4 | 0.00 | 0.00 | 0.00 | 49 | 1006.6 |
| 20260504221537 | 75 | 215 | 6.1 | 23.5 | 0.00 | 0.00 | 0.00 | 51 | 1006.6 |
| 20260504220030 | 75 | 224 | 6.1 | 20.0 | 0.00 | 0.00 | 0.00 | 47 | 1006.6 |
| 20260504214531 | 76 | 215 | 7.0 | 13.0 | 0.00 | 0.00 | 0.00 | 52 | 1006.4 |
| 20260504213038 | 74 | 207 | 1.7 | 7.0 | 0.00 | 0.00 | 0.00 | 57 | 1006.7 |
| 20260504211535 | 74 | 0 | 0.0 | 7.0 | 0.00 | 0.00 | 0.00 | 56 | 1007.0 |
| 20260504210030 | 74 | 234 | 2.6 | 12.2 | 0.00 | 0.00 | 0.00 | 55 | 1007.3 |
| 20260504204535 | 75 | 234 | 4.3 | 9.6 | 0.00 | 0.00 | 0.00 | 52 | 1007.5 |
| 20260504203033 | 76 | 214 | 2.6 | 7.8 | 0.00 | 0.00 | 0.00 | 52 | 1007.6 |
| 20260504201530 | 75 | 222 | 3.5 | 15.6 | 0.00 | 0.00 | 0.00 | 54 | 1007.8 |
| 20260504200030 | 74 | 210 | 4.3 | 10.4 | 0.00 | 0.00 | 0.00 | 54 | 1008.0 |
| 20260504194530 | 73 | 221 | 2.6 | 13.0 | 0.00 | 0.00 | 0.00 | 56 | 1008.3 |
| 20260504193030 | 74 | 217 | 7.0 | 15.6 | 0.00 | 0.00 | 0.00 | 58 | 1008.4 |
| 20260504191557 | 73 | 259 | 4.3 | 13.0 | 0.00 | 0.00 | 0.00 | 58 | 1008.7 |
| 20260504190037 | 72 | 246 | 6.1 | 8.7 | 0.00 | 0.00 | 0.00 | 61 | 1008.8 |
| 20260504184541 | 71 | 229 | 4.3 | 13.0 | 0.00 | 0.00 | 0.00 | 62 | 1009.1 |
| 20260504183032 | 70 | 196 | 4.3 | 11.3 | 0.00 | 0.00 | 0.00 | 63 | 1009.1 |
| 20260504181533 | 69 | 232 | 4.3 | 11.3 | 0.00 | 0.00 | 0.00 | 63 | 1009.0 |
| 20260504180035 | 70 | 211 | 5.2 | 15.6 | 0.00 | 0.00 | 0.00 | 63 | 1009.0 |
| 20260504174530 | 69 | 207 | 7.8 | 14.8 | 0.00 | 0.00 | 0.00 | 62 | 1008.9 |
| 20260504173030 | 69 | 204 | 4.3 | 16.5 | 0.00 | 0.00 | 0.00 | 65 | 1008.7 |
| 20260504171530 | 69 | 196 | 5.2 | 13.9 | 0.00 | 0.00 | 0.00 | 65 | 1008.7 |